Tracking 35334 objects as of 13-Sep-2026
HD Live streaming from Space Station
objects crossing your sky now

COSMOS 1813 DEB


COSMOS 1813 DEB is no longer on orbit


NORAD ID: 17762
Int'l Code: 1987-004BT
Launch date: January 15, 1987
Source: Commonwealth of Independent States (former USSR) (CIS)
Launch site: PLESETSK MISSILE AND SPACE COMPLEX (PKMTR)
Decay date: 1989-01-17

Note: This is SATELLITE DEBRIS
Your satellite tracking list
Your tracking list is empty




NASA's NSSDC Master Catalog

Two Line Element Set (TLE):
1 17762U 87004 BT 89016.46437984  .07620898 +12000-5 +17185-1 0  9992
2 17762 072.7763 044.4460 0067869 295.6917 064.0978 15.93263892106711
Source of the keplerian elements: AFSPC